UAL51 DAOO-GVAC

Flight info

Callsign UAL51
Flight time N/A
Altitude 32000
Route SID73 OJD UA411 ROMOR/N0454F340 UA411 IBALU/N0451F350 UN857 TERTO N857 DEREV/N0456F360 N857 GUNET UW11 PINPO PINPO1F
Aircraft B738/M-SDE2E3FGHIRWXY/LB1

Departure

Time 2026-04-21 12:32
Airport Oran Es-Sénia (Ahmed Ben Bella) International Airport (DAOO)

Arrival

Time N/A
Airport Amílcar Cabral International Airport (GVAC)
Time Latitude Longitude Altitude Speed Heading
2026-04-21 12:25 35.61900 -0.61257 291 ft 1 kts 73°
2026-04-21 12:26 35.61897 -0.61267 291 ft 1 kts 58°
2026-04-21 12:26 35.61892 -0.61275 291 ft 1 kts 44°
2026-04-21 12:26 35.61888 -0.61280 291 ft 0 kts 39°
2026-04-21 12:27 35.61894 -0.61276 291 ft 5 kts 24°
2026-04-21 12:28 35.61945 -0.61250 291 ft 8 kts 31°
2026-04-21 12:28 35.61986 -0.61205 292 ft 9 kts 50°
2026-04-21 12:28 35.62038 -0.61101 293 ft 19 kts 65°
2026-04-21 12:28 35.62096 -0.60935 294 ft 25 kts 66°
2026-04-21 12:29 35.62166 -0.60728 296 ft 28 kts 67°
2026-04-21 12:29 35.62243 -0.60507 296 ft 27 kts 68°
2026-04-21 12:29 35.62323 -0.60370 297 ft 21 kts 14°
2026-04-21 12:29 35.62477 -0.60353 294 ft 23 kts 359°
2026-04-21 12:30 35.62638 -0.60417 293 ft 26 kts 338°
2026-04-21 12:30 35.62789 -0.60493 291 ft 9 kts 336°
2026-04-21 12:30 35.62797 -0.60497 290 ft 0 kts 336°
2026-04-21 12:31 35.62804 -0.60502 290 ft 1 kts 336°
2026-04-21 12:31 35.62837 -0.60520 290 ft 7 kts 333°
2026-04-21 12:31 35.62888 -0.60587 291 ft 14 kts 277°
2026-04-21 12:31 35.62803 -0.60878 293 ft 70 kts 247°
2026-04-21 12:32 35.62519 -0.61719 293 ft 142 kts 247°
2026-04-21 12:32 35.62061 -0.63043 440 ft 184 kts 245°
2026-04-21 12:32 35.61477 -0.64444 1174 ft 188 kts 228°
2026-04-21 12:32 35.60444 -0.65455 1863 ft 200 kts 218°
2026-04-21 12:33 35.59367 -0.66642 2543 ft 216 kts 223°
2026-04-21 12:33 35.58261 -0.68004 3188 ft 236 kts 225°
2026-04-21 12:33 35.57158 -0.69425 3777 ft 233 kts 225°
2026-04-21 12:33 35.56033 -0.70896 4383 ft 237 kts 226°
2026-04-21 12:34 35.54925 -0.72354 5003 ft 238 kts 226°
2026-04-21 12:34 35.53783 -0.73860 5693 ft 251 kts 227°
2026-04-21 12:34 35.52556 -0.75481 6586 ft 267 kts 227°
2026-04-21 12:34 35.51306 -0.77131 7689 ft 272 kts 227°
2026-04-21 12:35 35.50031 -0.78812 8818 ft 273 kts 227°
2026-04-21 12:35 35.48718 -0.80546 9645 ft 282 kts 228°
2026-04-21 12:35 35.47399 -0.82284 10631 ft 284 kts 228°
2026-04-21 12:35 35.46020 -0.84099 11272 ft 298 kts 228°
2026-04-21 12:36 35.44584 -0.85990 11830 ft 316 kts 228°
2026-04-21 12:36 35.43043 -0.88018 12347 ft 333 kts 228°
2026-04-21 12:36 35.41427 -0.90143 12923 ft 350 kts 228°
2026-04-21 12:36 35.39767 -0.92324 13823 ft 355 kts 227°
2026-04-21 12:37 35.38102 -0.94508 14812 ft 355 kts 227°
2026-04-21 12:37 35.36406 -0.96745 15566 ft 362 kts 230°
2026-04-21 12:37 35.34909 -0.99224 16341 ft 367 kts 234°
2026-04-21 12:37 35.33420 -1.01730 17258 ft 367 kts 234°
2026-04-21 12:38 35.31911 -1.04272 17947 ft 374 kts 234°
2026-04-21 12:38 35.30373 -1.06859 18758 ft 377 kts 234°
2026-04-21 12:38 35.28850 -1.09417 19700 ft 375 kts 234°
2026-04-21 12:38 35.27304 -1.12017 20334 ft 382 kts 234°
2026-04-21 12:39 35.25737 -1.14648 21117 ft 384 kts 235°
2026-04-21 12:39 35.24180 -1.17264 21949 ft 385 kts 235°
2026-04-21 12:39 35.22585 -1.19940 22561 ft 391 kts 235°
2026-04-21 12:39 35.21006 -1.22589 23287 ft 392 kts 235°
2026-04-21 12:40 35.19387 -1.25301 24005 ft 395 kts 235°
2026-04-21 12:40 35.17767 -1.28013 24605 ft 399 kts 235°
2026-04-21 12:40 35.16135 -1.30744 25275 ft 401 kts 235°
2026-04-21 12:40 35.14488 -1.33498 25825 ft 406 kts 235°
2026-04-21 12:41 35.12816 -1.36286 26409 ft 409 kts 235°
2026-04-21 12:41 35.11150 -1.39070 27053 ft 410 kts 235°
2026-04-21 12:41 35.09441 -1.41919 27550 ft 415 kts 235°
2026-04-21 12:41 35.07747 -1.44742 28091 ft 418 kts 235°
2026-04-21 12:42 35.06033 -1.47593 28680 ft 419 kts 235°
2026-04-21 12:42 35.04308 -1.50464 29479 ft 415 kts 235°
2026-04-21 12:42 35.02623 -1.53264 30297 ft 411 kts 235°
2026-04-21 12:42 35.00930 -1.56074 30833 ft 411 kts 235°
2026-04-21 12:43 34.99263 -1.58839 31403 ft 410 kts 235°
2026-04-21 12:43 34.97588 -1.61617 31882 ft 406 kts 235°
2026-04-21 12:43 34.95906 -1.64405 31892 ft 417 kts 235°
2026-04-21 12:43 34.94146 -1.67322 31915 ft 428 kts 235°
2026-04-21 12:44 34.92385 -1.70234 31901 ft 430 kts 234°
2026-04-21 12:44 34.88892 -1.76005 31900 ft 422 kts 235°
2026-04-21 12:45 34.85394 -1.81775 31917 ft 424 kts 235°
2026-04-21 12:45 34.81913 -1.87508 31911 ft 424 kts 234°
2026-04-21 12:46 34.78417 -1.93255 31915 ft 424 kts 235°
2026-04-21 12:46 34.76934 -1.96316 31897 ft 422 kts 250°
2026-04-21 12:46 34.76068 -1.99748 31935 ft 422 kts 253°
2026-04-21 12:47 34.74318 -2.06541 31924 ft 423 kts 252°
2026-04-21 12:47 34.72545 -2.13318 31924 ft 422 kts 252°
2026-04-21 12:48 34.70768 -2.20069 31960 ft 420 kts 252°
2026-04-21 12:48 34.68984 -2.26834 31980 ft 421 kts 252°
2026-04-21 12:49 34.67197 -2.33592 31972 ft 420 kts 252°
2026-04-21 12:49 34.65415 -2.40314 31978 ft 420 kts 252°
2026-04-21 12:50 34.63615 -2.47083 31983 ft 421 kts 252°
2026-04-21 12:50 34.61816 -2.53830 31977 ft 420 kts 252°
2026-04-21 12:51 34.60009 -2.60566 31955 ft 420 kts 251°
2026-04-21 12:51 34.58179 -2.67252 31955 ft 421 kts 251°
2026-04-21 12:52 34.56342 -2.73989 31944 ft 420 kts 251°
2026-04-21 12:52 34.54529 -2.80677 31938 ft 419 kts 251°
2026-04-21 12:53 34.52708 -2.87405 31928 ft 419 kts 251°
2026-04-21 12:53 34.50890 -2.94104 31916 ft 419 kts 251°
2026-04-21 12:54 34.49072 -3.00788 31914 ft 419 kts 251°
2026-04-21 12:54 34.47248 -3.07470 31918 ft 419 kts 251°
2026-04-21 12:55 34.45417 -3.14173 31922 ft 418 kts 251°
2026-04-21 12:55 34.43588 -3.20842 31916 ft 419 kts 251°
2026-04-21 12:56 34.41749 -3.27537 31935 ft 419 kts 251°
2026-04-21 12:56 34.39914 -3.34197 31937 ft 418 kts 251°
2026-04-21 12:57 34.38073 -3.40869 31943 ft 417 kts 251°
2026-04-21 12:57 34.36235 -3.47512 31952 ft 418 kts 251°
2026-04-21 12:58 34.34429 -3.54193 31953 ft 419 kts 252°
2026-04-21 12:58 34.32618 -3.60886 31944 ft 417 kts 251°
2026-04-21 12:59 34.30812 -3.67530 31960 ft 417 kts 251°
2026-04-21 12:59 34.29000 -3.74192 31957 ft 418 kts 251°
2026-04-21 13:00 34.27186 -3.80837 31950 ft 416 kts 251°
2026-04-21 13:00 34.25375 -3.87455 31942 ft 417 kts 251°
2026-04-21 13:01 34.23555 -3.94096 31948 ft 416 kts 251°
2026-04-21 13:01 34.21743 -4.00688 31937 ft 416 kts 251°
2026-04-21 13:02 34.19919 -4.07314 31954 ft 416 kts 251°
2026-04-21 13:02 34.17173 -4.17246 31948 ft 417 kts 250°
2026-04-21 13:03 34.15282 -4.23834 31960 ft 415 kts 250°
2026-04-21 13:03 34.13408 -4.30362 31954 ft 416 kts 250°
2026-04-21 13:04 34.11510 -4.36962 31931 ft 417 kts 250°
2026-04-21 13:04 34.09612 -4.43532 31929 ft 416 kts 250°
2026-04-21 13:05 34.07712 -4.50101 31924 ft 416 kts 250°
2026-04-21 13:05 34.05817 -4.56639 31920 ft 415 kts 250°
2026-04-21 13:06 34.03912 -4.63199 31908 ft 414 kts 250°
2026-04-21 13:06 34.02011 -4.69724 31893 ft 415 kts 249°
2026-04-21 13:07 34.00102 -4.76266 31879 ft 415 kts 249°
2026-04-21 13:07 33.98184 -4.82821 31868 ft 415 kts 249°
2026-04-21 13:08 33.96270 -4.89347 31878 ft 414 kts 249°
2026-04-21 13:08 33.94356 -4.95865 31854 ft 414 kts 249°
2026-04-21 13:09 33.92799 -5.02513 31881 ft 417 kts 266°
2026-04-21 13:09 33.93347 -5.09491 31845 ft 422 kts 273°
2026-04-21 13:10 33.93909 -5.16475 31846 ft 420 kts 272°
2026-04-21 13:10 33.94446 -5.23459 31853 ft 420 kts 272°
2026-04-21 13:11 33.94975 -5.30461 31842 ft 420 kts 272°
2026-04-21 13:11 33.95497 -5.37401 31848 ft 420 kts 272°
2026-04-21 13:12 33.96019 -5.44414 31841 ft 420 kts 272°
2026-04-21 13:12 33.96538 -5.51411 31843 ft 420 kts 272°
2026-04-21 13:13 33.97046 -5.58352 31839 ft 420 kts 272°